Hayward, WI

3:14 PM CST on December 11, 2017 (GMT -0600)
Sawyer County

Weather History for KHYR - November, 2010

Change the Weather History Date:

Thursday, November 25, 2010

  Actual Average Record
Temperature  
Mean Temperature 20 °F -  
Max Temperature 32 °F 41 °F 51 °F (1998)
Min Temperature 7 °F 18 °F 1 °F (1996)
Degree Days  
Heating Degree Days 46    
Moisture  
Dew Point 16 °F    
Average Humidity 82    
Maximum Humidity 100    
Minimum Humidity 49    
Precipitation  
Precipitation 0.00 in - - ()
Sea Level Pressure  
Sea Level Pressure 29.68 in    
Wind  
Wind Speed 4 mph (WSW)    
Max Wind Speed 13 mph    
Max Gust Speed 23 mph    
Visibility 7 miles    
Events Snow    
Averages and records for this station are not official NWS values.
T = Trace of Precipitation, MM = Missing Value Source: NWS Daily Summary

Daily Weather History Graph

Daily Weather History Graph

Search for Another Location

Airport or City:

Trip Planner

Search our weather history database for the weather conditions in past years. The results will help you decide how hot, cold, wet, or windy it might be!

Date:

Astronomy

Nov. 25, 2010 Rise Set
Actual Time 7:19 AM CST 4:25 PM CST
Civil Twilight 6:46 AM CST 4:58 PM CST
Nautical Twilight 6:09 AM CST 5:35 PM CST
Astronomical Twilight 5:33 AM CST 6:11 PM CST
Moon 8:24 PM CST (11/25) 10:50 AM CST (11/25)
Length of Visible Light 10h 12m
Length of Day
9h 05m
Waning Gibbous, 82% of the Moon is Illuminated
Nov 25
Waning Gibbous
Nov 28
Last Quarter
Dec 5
New
Dec 13
First Quarter
Dec 21
Full

Hourly Weather History & Observations

Time (CST) Temp. Windchill Dew Point Humidity Pressure Visibility Wind Dir Wind Speed Gust Speed Precip Events Conditions
12:05 AM 30.2 °F - 30.2 °F 100% 29.66 in 1.8 mi Calm Calm - 0.00 in Snow Light Snow
12:16 AM 30.2 °F - 30.2 °F 100% 29.66 in 1.8 mi Calm Calm - 0.00 in Snow Light Snow
12:36 AM 30.2 °F - 30.2 °F 100% 29.65 in 2.0 mi Calm Calm - 0.00 in Snow Light Snow
12:50 AM 30.2 °F - 30.2 °F 100% 29.64 in 2.5 mi Calm Calm - 0.00 in Snow Light Snow
12:53 AM 30.9 °F - 30.0 °F 96% 29.69 in 3.0 mi Calm Calm - 0.00 in Snow Light Snow
1:01 AM 30.2 °F - 30.2 °F 100% 29.65 in 4.0 mi Calm Calm - 0.00 in Snow Light Snow
1:22 AM 30.2 °F - 30.2 °F 100% 29.64 in 6.0 mi Calm Calm - 0.00 in   Overcast
1:53 AM 32.0 °F 28.7 °F 30.0 °F 92% 29.68 in 7.0 mi SSW 3.5 mph - 0.00 in   Overcast
2:11 AM 32.0 °F 27.5 °F 30.2 °F 93% 29.64 in 4.0 mi SW 4.6 mph - 0.00 in Snow Light Snow
2:16 AM 32.0 °F 28.7 °F 30.2 °F 93% 29.63 in 2.5 mi Variable 3.5 mph - 0.00 in Snow Light Snow
2:23 AM 32.0 °F - 30.2 °F 93% 29.63 in 3.0 mi Calm Calm - 0.00 in Snow Light Snow
2:30 AM 32.0 °F 27.5 °F 30.2 °F 93% 29.63 in 3.0 mi SSW 4.6 mph - 0.00 in Snow Light Snow
2:53 AM 32.0 °F 27.5 °F 30.9 °F 96% 29.67 in 2.0 mi WSW 4.6 mph - 0.00 in Snow Light Snow
2:59 AM 32.0 °F 28.7 °F 30.2 °F 93% 29.62 in 1.5 mi Variable 3.5 mph - 0.00 in Snow Light Snow
3:08 AM 32.0 °F 28.7 °F 30.2 °F 93% 29.62 in 3.0 mi WSW 3.5 mph - 0.00 in Snow Light Snow
3:22 AM 32.0 °F 27.5 °F 30.2 °F 93% 29.62 in 1.8 mi Variable 4.6 mph - 0.00 in Snow Light Snow
3:32 AM 30.2 °F 25.4 °F 30.2 °F 100% 29.63 in 3.0 mi Variable 4.6 mph - 0.00 in Snow Light Snow
3:53 AM 30.9 °F - 28.9 °F 92% 29.66 in 10.0 mi Calm Calm - 0.00 in   Overcast
4:24 AM 30.2 °F 25.4 °F 28.4 °F 93% 29.62 in 10.0 mi Variable 4.6 mph - N/A   Overcast
4:49 AM 30.2 °F 24.3 °F 26.6 °F 86% 29.61 in 9.0 mi Variable 5.8 mph - N/A   Overcast
4:53 AM 30.0 °F 25.2 °F 27.0 °F 88% 29.67 in 9.0 mi Variable 4.6 mph - N/A   Overcast
5:04 AM 30.2 °F 21.3 °F 26.6 °F 86% 29.64 in 7.0 mi WSW 10.4 mph 20.7 mph N/A   Overcast
5:15 AM 24.8 °F 13.4 °F 21.2 °F 86% 29.65 in 5.0 mi West 12.7 mph 23.0 mph 0.00 in   Overcast
5:53 AM 19.9 °F 10.1 °F 17.1 °F 89% 29.70 in 8.0 mi WSW 8.1 mph - 0.00 in   Overcast
6:30 AM 19.4 °F 9.5 °F 15.8 °F 86% 29.68 in 9.0 mi WSW 8.1 mph - N/A   Overcast
6:53 AM 18.0 °F 6.9 °F 14.0 °F 84% 29.75 in 9.0 mi WSW 9.2 mph 18.4 mph N/A   Overcast
7:53 AM 14.0 °F 2.9 °F 9.0 °F 80% 29.78 in 10.0 mi West 8.1 mph 17.3 mph N/A   Overcast
8:42 AM 10.4 °F 2.2 °F 5.0 °F 79% 29.74 in 10.0 mi Variable 4.6 mph - N/A   Partly Cloudy
8:53 AM 12.0 °F 1.5 °F 6.1 °F 77% 29.81 in 10.0 mi Variable 6.9 mph - N/A   Partly Cloudy
9:53 AM 12.0 °F 0.5 °F 1.9 °F 64% 29.82 in 10.0 mi West 8.1 mph - N/A   Clear
10:53 AM 12.9 °F 0.7 °F -0.0 °F 56% 29.81 in 10.0 mi SW 9.2 mph 16.1 mph N/A   Clear
11:53 AM 12.9 °F 2.6 °F -0.9 °F 54% 29.76 in 10.0 mi Variable 6.9 mph 17.3 mph N/A   Clear
12:53 PM 12.9 °F 1.6 °F -2.0 °F 51% 29.73 in 10.0 mi WSW 8.1 mph 17.3 mph N/A   Clear
1:53 PM 12.9 °F -0.2 °F -2.9 °F 49% 29.70 in 10.0 mi WSW 10.4 mph 21.9 mph N/A   Clear
2:53 PM 12.0 °F -0.4 °F -2.9 °F 51% 29.70 in 10.0 mi WSW 9.2 mph 19.6 mph N/A   Clear
3:53 PM 10.0 °F -2.9 °F -4.0 °F 53% 29.73 in 10.0 mi WSW 9.2 mph 20.7 mph N/A   Overcast
4:53 PM 8.1 °F -4.3 °F -2.0 °F 64% 29.74 in 10.0 mi WSW 8.1 mph 17.3 mph N/A   Overcast
5:53 PM 7.0 °F -4.5 °F -0.0 °F 73% 29.74 in 9.0 mi WSW 6.9 mph - 0.00 in   Overcast
6:53 PM 8.1 °F -3.2 °F 1.9 °F 76% 29.73 in 7.0 mi Variable 6.9 mph - 0.00 in   Overcast
7:30 PM 8.6 °F -4.7 °F 1.4 °F 73% 29.64 in 8.0 mi WSW 9.2 mph - 0.00 in   Overcast
7:53 PM 8.1 °F -2.0 °F 1.0 °F 73% 29.72 in 10.0 mi WSW 5.8 mph - 0.00 in   Overcast
8:51 PM 8.6 °F -5.5 °F 1.4 °F 73% 29.63 in 7.0 mi WSW 10.4 mph 17.3 mph 0.00 in   Overcast
8:53 PM 8.1 °F -4.3 °F 1.0 °F 73% 29.71 in 7.0 mi WSW 8.1 mph 17.3 mph 0.00 in   Overcast
9:53 PM 8.1 °F -2.0 °F 1.0 °F 73% 29.69 in 10.0 mi Variable 5.8 mph 19.6 mph 0.00 in   Overcast
10:05 PM 8.6 °F -5.5 °F 1.4 °F 73% 29.61 in 10.0 mi WSW 10.4 mph 17.3 mph N/A   Overcast
10:53 PM 9.0 °F -3.2 °F 1.9 °F 73% 29.70 in 10.0 mi West 8.1 mph - N/A   Overcast
11:53 PM 10.0 °F -2.9 °F 3.9 °F 76% 29.70 in 10.0 mi WSW 9.2 mph 16.1 mph N/A   Overcast